| time (UTC) | temp F | wind direction | speed MPH | gust MPH | rain 1hr in | rain 24hr in | rain mn in | humidity % | barometer mb |
| 20260506211540 | 63 | 204 | 3.0 | 7.0 | 0.00 | 0.21 | 0.21 | 95 | 1006.5 |
| 20260506210041 | 62 | 216 | 5.0 | 11.0 | 0.00 | 0.21 | 0.21 | 96 | 1006.6 |
| 20260506204540 | 61 | 220 | 2.0 | 6.0 | 0.00 | 0.21 | 0.21 | 97 | 1006.5 |
| 20260506203043 | 61 | 243 | 5.0 | 8.0 | 0.00 | 0.21 | 0.21 | 97 | 1006.6 |
| 20260506201545 | 61 | 245 | 3.0 | 8.0 | 0.00 | 0.21 | 0.21 | 97 | 1006.5 |
| 20260506200023 | 61 | 188 | 2.0 | 8.0 | 0.00 | 0.21 | 0.21 | 98 | 1006.5 |
| 20260506194528 | 60 | 211 | 4.0 | 11.0 | 0.00 | 0.21 | 0.21 | 98 | 1006.6 |
| 20260506193027 | 60 | 221 | 4.0 | 11.0 | 0.00 | 0.21 | 0.21 | 98 | 1006.9 |
| 20260506191530 | 60 | 230 | 2.0 | 10.0 | 0.00 | 0.21 | 0.21 | 98 | 1006.9 |
| 20260506190028 | 60 | 253 | 5.0 | 8.0 | 0.01 | 0.21 | 0.21 | 98 | 1007.2 |
| 20260506184545 | 60 | 222 | 1.0 | 10.0 | 0.01 | 0.21 | 0.21 | 98 | 1007.3 |
| 20260506183051 | 60 | 262 | 3.0 | 10.0 | 0.01 | 0.21 | 0.21 | 97 | 1007.5 |
| 20260506181610 | 60 | 214 | 7.0 | 13.0 | 0.02 | 0.21 | 0.21 | 97 | 1007.5 |
| 20260506180044 | 60 | 197 | 5.0 | 11.0 | 0.01 | 0.20 | 0.20 | 97 | 1007.6 |
| 20260506174545 | 60 | 207 | 3.0 | 10.0 | 0.01 | 0.20 | 0.20 | 97 | 1007.6 |
| 20260506173055 | 60 | 197 | 6.0 | 11.0 | 0.02 | 0.20 | 0.20 | 97 | 1007.6 |
| 20260506171527 | 60 | 213 | 4.0 | 11.0 | 0.02 | 0.19 | 0.19 | 97 | 1007.8 |
| 20260506170042 | 60 | 200 | 4.0 | 14.0 | 0.03 | 0.19 | 0.19 | 97 | 1007.8 |
| 20260506164548 | 60 | 262 | 7.0 | 12.0 | 0.05 | 0.19 | 0.19 | 96 | 1007.7 |
| 20260506163027 | 60 | 205 | 5.0 | 11.0 | 0.06 | 0.18 | 0.18 | 97 | 1007.5 |
| 20260506161536 | 59 | 147 | 6.0 | 19.0 | 0.08 | 0.17 | 0.17 | 97 | 1007.3 |
| 20260506160039 | 60 | 164 | 4.0 | 10.0 | 0.09 | 0.16 | 0.16 | 97 | 1008.4 |
| 20260506154536 | 60 | 192 | 4.0 | 13.0 | 0.08 | 0.14 | 0.14 | 96 | 1008.6 |
| 20260506153104 | 60 | 281 | 3.0 | 12.0 | 0.09 | 0.12 | 0.12 | 96 | 1008.8 |
| 20260506151527 | 60 | 201 | 3.0 | 9.0 | 0.09 | 0.09 | 0.09 | 95 | 1008.9 |
| 20260506150034 | 61 | 159 | 2.0 | 8.0 | 0.07 | 0.07 | 0.07 | 94 | 1008.7 |
| 20260506144544 | 61 | 217 | 4.0 | 11.0 | 0.06 | 0.06 | 0.06 | 93 | 1008.7 |
| 20260506143045 | 61 | 166 | 3.0 | 14.0 | 0.03 | 0.03 | 0.03 | 91 | 1008.6 |
| 20260506141536 | 63 | 255 | 5.0 | 13.0 | 0.00 | 0.00 | 0.00 | 87 | 1008.8 |
| 20260506140041 | 63 | 223 | 6.0 | 13.0 | 0.00 | 0.00 | 0.00 | 86 | 1008.6 |
| 20260506134533 | 64 | 256 | 5.0 | 10.0 | 0.00 | 0.00 | 0.00 | 86 | 1008.4 |
| 20260506133034 | 63 | 148 | 3.0 | 12.0 | 0.00 | 0.00 | 0.00 | 85 | 1008.9 |
| 20260506131551 | 64 | 189 | 3.0 | 12.0 | 0.00 | 0.00 | 0.00 | 83 | 1008.8 |
| 20260506130044 | 64 | 236 | 4.0 | 14.0 | 0.00 | 0.00 | 0.00 | 83 | 1008.9 |
| 20260506124529 | 64 | 246 | 4.0 | 13.0 | 0.00 | 0.00 | 0.00 | 82 | 1008.9 |
| 20260506123030 | 65 | 244 | 6.0 | 16.0 | 0.00 | 0.00 | 0.00 | 80 | 1008.9 |
| 20260506121539 | 65 | 197 | 5.0 | 15.0 | 0.00 | 0.00 | 0.00 | 79 | 1008.6 |
| 20260506120042 | 65 | 182 | 6.0 | 12.0 | 0.00 | 0.00 | 0.00 | 80 | 1008.6 |
| 20260506114539 | 64 | 229 | 4.0 | 12.0 | 0.00 | 0.00 | 0.00 | 80 | 1008.6 |
| 20260506113047 | 64 | 75 | 3.0 | 13.0 | 0.00 | 0.00 | 0.00 | 79 | 1008.6 |
| 20260506111532 | 65 | 228 | 4.0 | 13.0 | 0.00 | 0.00 | 0.00 | 79 | 1008.7 |
| 20260506110029 | 65 | 202 | 6.0 | 13.0 | 0.00 | 0.00 | 0.00 | 79 | 1008.4 |
| 20260506104535 | 64 | 230 | 6.0 | 14.0 | 0.00 | 0.00 | 0.00 | 79 | 1008.5 |
| 20260506103032 | 64 | 212 | 1.0 | 8.0 | 0.00 | 0.00 | 0.00 | 79 | 1008.2 |
| 20260506101539 | 64 | 257 | 4.0 | 10.0 | 0.00 | 0.00 | 0.00 | 79 | 1008.1 |
| 20260506100039 | 65 | 152 | 2.0 | 8.0 | 0.00 | 0.00 | 0.00 | 79 | 1008.2 |
| 20260506094545 | 65 | 214 | 2.0 | 10.0 | 0.00 | 0.00 | 0.00 | 79 | 1008.2 |
| 20260506093026 | 65 | 228 | 3.0 | 9.0 | 0.00 | 0.00 | 0.00 | 79 | 1008.2 |
| 20260506091548 | 65 | 122 | 4.0 | 11.0 | 0.00 | 0.00 | 0.00 | 78 | 1008.3 |
| 20260506090026 | 65 | 280 | 2.0 | 9.0 | 0.00 | 0.00 | 0.00 | 78 | 1008.4 |
| 20260506084528 | 65 | 262 | 4.0 | 11.0 | 0.00 | 0.00 | 0.00 | 77 | 1008.3 |
| 20260506083029 | 65 | 234 | 3.0 | 11.0 | 0.00 | 0.00 | 0.00 | 77 | 1008.5 |
| 20260506081537 | 65 | 143 | 4.0 | 12.0 | 0.00 | 0.00 | 0.00 | 76 | 1008.4 |
| 20260506073037 | 65 | 214 | 2.0 | 7.0 | 0.00 | 0.00 | 0.00 | 75 | 1008.6 |
| 20260506071554 | 65 | 241 | 0.0 | 8.0 | 0.00 | 0.00 | 0.00 | 74 | 1008.8 |
| 20260506061544 | 65 | 185 | 2.0 | 5.0 | 0.00 | 0.00 | 0.00 | 72 | 1009.2 |
| 20260506044531 | 66 | 253 | 1.0 | 5.0 | 0.00 | 0.00 | 0.00 | 68 | 1009.9 |
| 20260506043030 | 66 | 195 | 2.0 | 7.0 | 0.00 | 0.00 | 0.00 | 67 | 1009.8 |
| 20260506041531 | 66 | 197 | 1.0 | 5.0 | 0.00 | 0.00 | 0.00 | 67 | 1009.8 |
| 20260506034547 | 68 | 222 | 0.0 | 7.0 | 0.00 | 0.00 | 0.00 | 63 | 1009.7 |
| 20260506033042 | 68 | 176 | 1.0 | 6.0 | 0.00 | 0.00 | 0.00 | 62 | 1009.6 |
| 20260506031546 | 69 | 251 | 3.0 | 8.0 | 0.00 | 0.00 | 0.00 | 61 | 1009.6 |
| 20260506030045 | 69 | 221 | 3.0 | 8.0 | 0.00 | 0.00 | 0.00 | 60 | 1009.5 |
| 20260506024600 | 69 | 143 | 1.0 | 7.0 | 0.00 | 0.00 | 0.00 | 59 | 1009.6 |
| 20260506023043 | 70 | 258 | 2.0 | 7.0 | 0.00 | 0.00 | 0.00 | 57 | 1009.6 |
| 20260506021532 | 71 | 170 | 2.0 | 7.0 | 0.00 | 0.00 | 0.00 | 55 | 1009.6 |
| 20260506020034 | 72 | 189 | 4.0 | 10.0 | 0.00 | 0.00 | 0.00 | 53 | 1009.5 |
| 20260506014535 | 72 | 209 | 3.0 | 14.0 | 0.00 | 0.00 | 0.00 | 52 | 1009.4 |
| 20260506013041 | 73 | 175 | 1.0 | 8.0 | 0.00 | 0.00 | 0.00 | 51 | 1009.3 |
| 20260506011533 | 73 | 205 | 3.0 | 14.0 | 0.00 | 0.00 | 0.00 | 50 | 1009.1 |
| 20260506010035 | 73 | 44 | 2.0 | 12.0 | 0.00 | 0.00 | 0.00 | 48 | 1008.9 |
| 20260506004541 | 74 | 244 | 3.0 | 10.0 | 0.00 | 0.00 | 0.00 | 47 | 1008.8 |
| 20260506003028 | 74 | 205 | 4.0 | 9.0 | 0.00 | 0.00 | 0.00 | 47 | 1008.7 |
| 20260506001537 | 74 | 211 | 4.0 | 9.0 | 0.00 | 0.00 | 0.00 | 48 | 1008.4 |
| 20260506000040 | 75 | 176 | 3.0 | 8.0 | 0.00 | 0.00 | 0.00 | 47 | 1008.4 |
| 20260505234540 | 75 | 168 | 1.0 | 9.0 | 0.00 | 0.00 | 0.00 | 46 | 1008.3 |
| 20260505233028 | 76 | 205 | 3.0 | 11.0 | 0.00 | 0.00 | 0.00 | 45 | 1008.3 |
| 20260505231528 | 76 | 197 | 6.0 | 21.0 | 0.00 | 0.00 | 0.00 | 44 | 1008.2 |
| 20260505230048 | 77 | 216 | 8.0 | 15.0 | 0.00 | 0.00 | 0.00 | 43 | 1008.1 |
| 20260505224533 | 77 | 199 | 7.0 | 16.0 | 0.00 | 0.00 | 0.00 | 43 | 1007.9 |
| 20260505223033 | 78 | 255 | 7.0 | 16.0 | 0.00 | 0.00 | 0.00 | 42 | 1007.9 |
| 20260505221535 | 79 | 231 | 8.0 | 18.0 | 0.00 | 0.00 | 0.00 | 41 | 1007.8 |
| 20260505220042 | 79 | 222 | 11.0 | 25.0 | 0.00 | 0.00 | 0.00 | 41 | 1007.9 |
| 20260505214529 | 79 | 263 | 7.0 | 16.0 | 0.00 | 0.00 | 0.00 | 43 | 1008.0 |
| 20260505213045 | 79 | 239 | 8.0 | 21.0 | 0.00 | 0.00 | 0.00 | 41 | 1007.9 |